Theta_e
348 347 345 344 343 342 343 342 342 342 341 342 342 343 343 344 344 344 345 346 345 345 345 343 340 338 337 337 338 341 345 348 349 349 349 349 348 348 347 345 344 344 344 344 344 344 345 345 345 345 345 344 343 342 343 342 342 342 342 343 343 344 346
350 350 346 343 342 342 342 341 341 341 340 341 342 343 343 343 343 344 344 345 345 344 344 342 341 339 337 337 336 338 342 346 349 349 349 349 348 349 349 348 347 346 346 345 345 345 345 345 345 345 344 345 344 343 342 342 342 342 342 342 343 344 346
350 351 349 344 342 341 341 340 340 340 340 341 342 342 342 342 343 343 344 344 345 344 344 343 342 341 339 337 336 336 338 343 348 349 348 348 348 349 350 351 350 349 349 347 346 345 345 344 344 344 344 344 345 344 343 342 342 342 343 343 343 343 345
349 350 351 348 343 340 340 339 339 340 340 341 341 340 340 340 342 343 343 344 344 344 344 344 343 343 341 338 336 335 335 338 343 347 348 348 348 349 350 351 351 351 350 348 346 346 345 344 343 343 343 344 345 345 344 343 343 343 343 343 344 344 345
349 349 351 352 348 341 338 338 339 339 340 341 341 340 340 340 341 342 343 344 344 344 344 344 344 343 342 340 337 335 334 334 337 342 346 347 347 348 349 350 351 351 350 350 347 346 345 344 343 343 342 343 343 344 344 344 344 344 344 344 344 345 346
349 349 349 351 351 347 340 337 338 338 339 339 339 340 340 340 341 342 343 343 344 344 344 345 345 343 342 341 338 335 334 333 334 337 342 345 345 345 346 348 350 350 350 350 349 348 347 346 345 344 343 342 342 342 344 344 344 345 345 345 345 345 346
349 349 348 348 351 351 346 340 338 337 338 338 338 339 339 340 340 342 343 343 343 344 344 344 345 344 342 341 340 337 334 333 333 334 337 341 343 342 343 344 347 348 348 348 348 348 348 347 347 346 345 344 343 342 342 343 345 346 346 346 346 345 345
349 348 348 348 348 350 350 347 342 339 338 338 338 338 338 339 340 341 342 342 343 343 344 344 344 344 342 341 341 339 337 335 333 333 335 337 339 340 340 340 342 344 346 346 346 346 347 346 347 347 348 348 348 345 343 342 345 347 347 347 346 345 344
350 350 349 349 348 348 349 350 347 342 339 339 340 339 339 339 340 341 342 342 343 343 343 344 345 344 343 343 342 341 339 337 335 334 334 335 336 337 337 337 337 339 342 344 344 344 344 345 345 346 347 347 348 347 346 345 346 349 349 348 346 345 344
351 351 350 350 350 348 347 349 349 346 342 340 341 341 341 341 341 342 342 342 343 343 343 344 345 345 345 345 345 344 342 339 336 334 333 333 335 335 336 336 335 335 338 341 343 343 343 343 343 344 345 345 346 347 347 347 349 350 350 349 347 345 344
351 351 350 351 351 350 349 349 349 348 345 342 341 342 341 342 343 343 343 343 342 343 343 344 345 345 346 346 346 346 346 343 340 336 334 334 334 334 335 335 334 333 334 336 339 340 342 342 342 343 343 344 345 346 346 348 349 349 349 348 348 347 345
349 350 350 351 351 351 350 349 349 349 348 345 343 343 342 343 343 344 344 343 343 343 343 344 345 345 346 346 346 346 347 347 345 340 337 336 335 334 333 334 333 333 333 333 334 337 339 340 341 342 343 344 345 345 345 346 347 348 348 348 348 348 349
345 348 349 350 351 351 351 350 350 350 348 347 345 344 344 343 344 344 344 344 343 343 344 344 344 345 345 346 346 346 347 348 348 344 339 336 336 336 335 333 333 333 333 333 333 334 335 336 338 339 340 342 343 344 345 344 344 345 345 347 348 349 349
343 345 346 347 349 350 350 350 351 350 350 349 348 346 346 345 345 345 344 344 344 344 344 344 344 345 345 346 346 347 347 347 348 347 344 338 335 335 336 335 335 334 333 333 333 333 333 333 334 336 337 338 339 341 344 345 344 343 343 344 346 346 347
341 342 344 345 347 349 349 350 351 350 351 351 349 349 348 347 346 345 345 345 345 345 345 345 346 346 347 347 347 347 347 348 348 348 348 344 339 336 336 335 335 335 334 334 333 333 333 332 332 333 334 335 336 339 343 346 346 345 344 344 345 346 346
340 341 342 342 343 346 348 349 349 349 350 351 350 350 350 349 348 347 347 347 346 347 347 346 347 347 347 348 349 348 348 348 348 348 349 349 347 344 342 340 339 338 337 336 335 334 333 333 332 332 332 333 334 336 341 345 347 347 347 347 346 347 348
340 339 339 340 340 342 344 347 348 348 349 350 350 350 350 351 351 350 349 349 349 349 348 347 348 348 347 346 346 347 349 349 350 350 350 350 350 349 349 348 347 346 344 343 342 341 339 336 334 334 334 334 334 336 338 342 345 347 348 348 348 348 349
338 338 338 339 339 339 341 345 346 347 348 347 348 348 348 349 350 350 350 350 351 351 350 350 351 350 349 348 347 347 350 352 352 352 352 352 352 351 351 351 351 351 349 349 349 349 347 344 340 338 338 338 337 337 338 339 342 344 346 347 347 348 348
337 337 336 337 338 338 339 341 342 343 344 344 345 345 345 346 348 348 348 348 350 351 352 352 351 350 351 351 351 350 351 352 352 352 353 353 353 352 352 351 351 351 352 352 352 352 353 350 347 344 343 342 341 339 339 339 339 340 342 343 344 346 346
336 336 334 334 334 334 334 335 337 338 339 340 342 342 343 344 344 345 345 346 347 348 349 349 349 349 349 350 350 350 350 350 350 350 351 351 351 351 351 351 352 352 353 353 353 353 354 353 352 350 348 348 347 345 345 343 340 339 340 342 343 344 345
335 335 333 332 331 328 327 328 329 332 334 334 335 336 338 339 340 341 342 343 344 345 345 346 346 347 347 347 347 348 348 348 349 349 349 350 350 350 350 350 351 351 351 351 352 352 352 353 353 352 351 351 350 350 350 349 345 343 343 344 345 346 346
336 335 334 331 327 324 323 321 321 322 324 326 327 328 331 333 335 336 338 340 341 341 342 342 342 342 342 342 343 344 345 345 346 346 347 347 348 348 349 349 349 350 350 350 350 350 351 351 351 351 351 351 351 351 351 350 348 347 347 346 347 348 348
337 336 334 330 326 325 325 323 322 320 319 319 320 321 322 324 325 328 332 334 334 335 336 336 337 337 337 338 340 341 342 342 342 342 343 343 344 346 346 346 346 347 348 349 349 350 351 351 350 351 351 351 351 350 350 350 349 349 349 349 349 349 349
336 335 333 330 328 328 328 327 326 324 322 320 320 321 321 320 319 320 323 325 325 326 327 327 329 331 332 334 336 337 337 338 338 338 339 339 340 341 341 342 342 343 344 345 346 347 348 348 349 349 350 350 350 350 350 350 350 350 350 350 350 349 350
332 331 329 328 328 327 326 326 325 324 322 320 320 322 323 322 320 319 320 320 320 320 322 322 324 325 325 328 331 332 333 332 330 329 330 330 331 333 335 336 337 339 340 342 343 344 344 345 346 346 347 347 347 347 348 349 350 350 350 351 350 350 350
329 328 327 326 325 323 322 320 319 318 317 315 316 318 318 317 317 318 319 321 320 321 322 322 322 323 323 323 324 325 327 328 325 323 322 323 325 328 331 333 335 337 340 342 342 342 343 344 344 344 345 345 345 346 346 347 347 348 349 349 350 350 351
328 327 325 323 320 318 317 316 314 312 312 311 311 312 312 311 312 312 315 317 318 319 320 320 322 324 325 325 323 322 322 324 325 325 325 326 329 333 335 336 336 337 339 340 340 339 340 340 341 341 341 341 342 343 343 344 345 346 346 347 348 348 349
326 324 322 320 319 318 316 314 313 311 310 309 309 309 309 309 310 309 310 311 312 313 314 315 318 320 321 322 323 322 321 321 322 325 327 330 332 335 336 336 336 337 337 337 336 335 333 333 333 333 333 334 336 337 337 339 339 340 342 343 344 346 347
324 322 320 320 319 318 316 314 312 311 310 309 308 308 308 308 308 309 308 308 309 309 309 310 312 313 313 313 315 317 320 321 320 321 325 329 331 332 333 333 333 333 332 330 328 326 323 322 323 324 325 328 330 331 332 332 332 333 334 335 337 340 342
324 322 321 320 319 318 316 314 312 311 310 309 308 308 308 307 307 308 307 307 308 308 308 308 308 308 309 309 310 311 314 318 319 319 321 324 327 329 330 330 329 329 327 326 324 321 318 316 317 318 321 324 326 328 329 329 330 330 331 331 332 335 337
324 322 321 320 319 318 315 313 312 311 310 309 308 308 308 307 307 307 307 307 307 307 307 307 307 307 307 307 308 308 309 312 314 316 317 319 322 325 327 327 326 326 325 324 323 322 320 318 316 316 317 319 321 323 324 325 327 328 329 330 331 332 333
323 322 320 319 319 317 315 313 312 311 310 309 308 308 308 307 307 307 307 306 307 307 306 306 306 307 307 306 306 307 307 308 308 310 312 314 315 318 320 321 322 322 321 320 320 320 320 318 317 315 315 315 316 317 318 319 320 322 325 327 329 330 330
323 321 320 319 319 317 315 313 312 311 310 309 308 308 308 307 307 307 306 306 306 306 306 306 306 306 306 306 306 306 306 306 306 307 308 311 313 315 317 317 318 319 320 319 318 317 317 316 316 315 314 314 315 315 315 316 316 316 318 321 323 325 326
322 321 320 319 318 316 314 313 312 311 310 309 309 308 308 308 308 307 306 306 306 305 305 305 306 306 306 306 306 306 306 306 306 306 306 308 312 316 318 318 318 317 318 318 318 317 317 316 316 315 315 314 314 314 315 315 315 315 315 315 316 317 318
321 320 319 319 318 316 314 313 312 312 311 310 309 309 309 309 309 308 307 306 305 304 304 304 304 304 304 304 305 305 305 305 305 305 305 306 307 310 313 316 317 318 318 317 317 317 316 315 315 316 316 316 316 315 315 315 315 315 315 314 314 314 314
321 320 319 319 318 316 314 314 313 312 312 311 310 310 310 310 309 309 308 306 305 304 304 304 304 304 304 304 304 304 304 305 305 305 305 306 307 307 309 312 315 317 319 320 319 318 317 315 315 316 317 317 317 317 317 317 317 316 316 315 315 315 314
320 319 319 319 317 316 314 313 313 313 312 311 311 311 311 310 310 309 308 307 305 304 303 304 304 305 305 305 305 305 305 306 306 306 306 307 307 308 310 314 317 319 319 320 321 320 319 318 317 316 316 317 317 317 317 318 318 317 317 317 316 316 316
320 320 320 319 317 316 314 314 314 313 312 312 312 312 312 311 311 311 310 309 307 304 303 304 304 305 305 305 305 306 306 306 306 307 307 308 309 310 311 314 317 319 320 320 321 321 320 320 319 319 317 316 316 317 317 317 317 317 317 316 316 316 316
Wind_Speed
21 23 27 29 30 30 30 30 29 28 28 26 26 25 25 24 24 22 20 20 19 19 19 18 17 17 16 16 15 15 16 15 12 10 9 9 9 8 8 8 8 7 6 6 5 5 6 7 7 7 7 7 8 8 8 9 9 9 9 9 8 8 7
19 20 24 27 29 30 30 30 29 29 28 27 26 26 25 24 24 23 21 20 19 18 18 18 18 17 15 15 15 15 16 15 14 12 10 10 9 9 8 8 7 7 6 6 6 6 6 7 7 7 8 7 7 8 8 9 9 9 9 9 8 8 7
18 17 20 24 28 30 30 30 30 29 29 28 27 26 25 23 23 23 21 19 18 18 18 18 17 16 15 15 15 15 15 15 15 13 12 11 9 9 9 8 7 7 6 7 7 7 7 7 7 7 7 7 8 8 9 9 9 9 9 9 8 8 8
19 17 16 19 25 28 30 30 31 30 30 29 27 25 23 22 23 22 21 19 18 17 16 16 16 16 15 15 15 15 15 15 15 14 13 12 10 10 10 9 8 7 7 7 7 8 8 7 7 7 8 8 8 9 9 9 9 9 9 9 9 8 8
20 19 16 14 19 25 29 30 30 30 30 28 28 27 25 24 23 22 21 19 18 17 15 14 15 16 16 15 15 15 15 14 14 14 14 13 12 11 11 10 9 8 7 7 7 7 7 7 8 8 8 8 8 9 9 9 9 9 8 8 8 8 8
21 21 19 15 14 18 25 29 29 29 29 28 28 28 27 25 24 22 21 19 19 18 17 16 15 16 16 16 16 15 15 15 14 14 14 14 13 12 11 11 10 9 8 7 7 7 7 7 8 8 8 8 9 9 9 8 8 8 8 8 8 8 8
22 21 21 18 14 13 18 25 28 29 29 29 28 28 27 27 25 23 22 20 18 18 17 16 16 16 17 17 17 16 15 16 15 15 15 15 15 13 12 12 11 10 9 9 8 8 7 7 8 9 8 8 8 9 9 9 8 8 8 8 8 8 9
21 22 21 21 18 15 14 19 24 28 29 29 29 28 27 27 27 25 23 21 19 18 17 16 15 16 16 16 16 16 15 16 16 16 16 16 15 14 13 12 11 10 10 10 10 9 9 8 8 9 9 9 9 8 9 9 8 8 8 8 8 9 9
19 20 21 21 21 21 17 16 18 23 27 28 28 28 27 28 28 26 24 22 20 18 17 16 15 14 14 14 14 14 14 15 16 16 16 16 16 15 14 12 11 11 10 10 10 10 10 9 9 10 9 9 9 9 9 9 9 8 9 9 9 9 9
14 17 20 20 20 22 22 19 17 18 22 25 27 28 28 28 28 26 25 24 22 19 17 17 16 15 14 14 13 12 12 13 15 16 16 16 15 15 14 13 12 12 11 11 10 10 10 10 10 10 10 10 9 9 9 10 10 10 10 10 10 10 9
11 14 17 19 19 20 21 22 20 18 19 22 25 26 27 27 28 27 26 24 23 21 20 18 17 16 15 14 14 13 12 12 13 15 16 16 16 15 15 14 14 13 13 12 12 11 10 10 10 11 11 11 10 10 10 10 10 10 10 10 10 10 9
10 12 15 18 19 19 20 22 22 20 19 20 22 23 24 25 26 25 25 25 25 24 22 21 20 18 17 16 15 14 13 12 12 13 15 16 16 16 16 16 16 15 14 14 14 13 12 11 11 11 11 11 11 11 11 11 11 10 10 10 10 10 10
7 11 14 17 21 22 21 20 20 20 19 19 19 20 22 23 24 24 24 25 26 26 25 23 22 21 19 18 17 16 15 14 13 13 15 17 17 17 18 17 17 17 16 15 15 15 14 14 14 13 13 12 12 12 12 11 12 12 11 11 11 11 11
6 7 11 14 20 26 25 20 18 17 17 16 16 17 20 22 23 23 24 25 26 27 26 25 24 23 21 20 19 18 16 16 15 14 15 16 18 18 18 18 18 18 18 17 17 16 16 16 16 16 15 15 14 14 13 12 12 12 12 12 11 11 11
8 6 4 7 15 24 27 23 19 18 17 16 16 15 16 19 21 22 23 24 25 26 25 24 23 22 21 20 20 19 18 17 17 16 15 15 17 18 18 18 18 18 19 18 18 18 17 17 17 17 17 16 16 15 14 13 13 12 11 11 10 10 10
11 10 10 9 11 17 23 22 20 19 17 16 16 15 14 15 17 19 21 22 23 24 23 22 21 20 19 18 18 18 18 18 18 17 17 17 17 16 17 17 17 18 18 19 18 18 18 18 18 18 18 18 18 17 16 15 14 13 11 11 10 10 11
12 14 16 17 19 20 22 22 20 19 17 15 15 15 14 14 14 15 18 19 20 21 21 20 19 18 17 17 18 18 18 19 18 18 18 19 19 18 17 16 16 17 18 18 18 18 18 19 19 19 19 19 18 18 17 17 16 14 13 12 12 12 12
13 15 19 20 22 24 25 23 21 19 17 15 14 13 13 15 15 15 15 17 18 18 19 19 18 17 17 19 21 20 19 18 18 18 19 20 20 20 19 18 18 18 19 19 19 19 19 19 19 19 19 18 18 18 17 18 17 16 16 15 14 14 14
14 15 19 21 20 22 25 25 24 22 19 17 15 14 13 13 14 14 13 14 16 16 17 17 16 15 17 19 19 17 16 16 16 16 17 18 20 20 20 20 19 18 20 21 21 20 20 20 20 19 18 18 18 17 17 17 17 17 17 17 16 16 15
15 16 20 22 21 21 23 24 25 24 23 20 18 16 15 14 14 15 14 14 14 13 13 13 12 12 14 15 14 12 11 11 12 13 13 15 15 16 17 18 17 17 19 20 19 18 19 20 20 20 19 17 17 16 16 17 17 18 18 18 17 17 17
17 21 24 25 24 24 24 24 24 24 24 23 21 19 17 15 14 14 14 13 13 12 11 11 11 11 11 11 11 11 11 10 9 9 9 10 10 10 11 12 12 13 14 15 16 14 15 17 18 19 19 19 18 17 16 18 19 18 18 18 18 18 17
21 25 26 25 25 25 25 25 25 25 24 24 23 22 20 17 15 14 14 13 13 12 11 10 9 8 8 8 8 9 9 8 7 6 6 6 6 5 5 5 7 8 9 11 12 12 13 15 16 17 18 18 19 17 17 19 20 19 19 20 20 20 20
24 25 25 24 24 24 24 23 23 23 22 22 22 22 20 18 16 16 15 15 13 12 12 12 12 12 10 10 10 9 8 6 5 4 3 3 3 4 3 2 3 4 5 7 8 8 10 12 13 14 14 15 16 17 17 20 21 21 21 21 22 22 22
25 24 23 23 23 23 22 21 20 20 19 19 19 18 17 15 14 14 14 14 13 12 11 13 15 15 13 12 11 10 9 8 6 5 4 4 2 1 2 2 2 1 2 3 5 6 7 8 9 9 10 11 12 12 14 17 19 20 20 21 21 22 22
24 23 22 22 21 20 19 18 17 16 15 16 17 15 12 11 9 10 12 12 10 9 10 12 14 13 12 11 10 10 9 9 9 9 10 9 8 7 5 4 2 1 0 2 5 5 5 5 5 5 6 7 8 8 8 11 13 15 16 17 17 19 20
22 22 21 19 17 17 16 14 13 12 11 11 13 12 9 8 7 8 9 9 7 7 9 10 11 10 9 9 8 8 8 8 7 8 8 9 8 8 8 7 6 5 3 1 2 2 2 2 1 2 3 4 5 6 6 8 10 11 12 13 14 15 16
20 19 18 17 15 14 13 11 10 10 10 9 9 9 7 7 6 6 7 7 6 6 7 7 8 8 7 6 6 6 6 7 7 6 6 7 7 6 6 5 5 3 2 1 1 2 2 2 1 1 1 2 2 3 4 6 8 9 10 11 12 13 15
21 20 18 15 13 11 10 10 9 9 9 9 8 7 6 5 4 4 5 4 4 4 5 5 5 5 5 4 4 4 4 5 7 7 7 7 7 6 6 5 4 3 2 1 1 2 2 2 2 2 2 2 2 3 4 4 5 7 7 7 9 11 13
22 20 18 16 13 10 8 8 9 8 9 9 8 7 6 4 3 3 3 2 2 2 2 2 3 3 3 3 3 3 4 4 5 6 7 7 7 7 6 6 5 4 3 2 1 1 2 2 2 1 2 2 2 3 4 4 4 5 6 6 8 9 10
22 21 19 16 13 10 7 6 8 8 8 8 7 6 5 4 3 2 2 2 1 1 1 1 1 1 1 2 2 3 4 4 4 5 5 6 6 5 5 5 4 4 3 2 1 0 0 1 1 1 2 2 2 3 3 3 4 5 5 5 7 8 9
22 20 18 15 12 10 7 6 7 7 7 7 6 6 5 4 3 2 1 1 1 2 2 2 2 2 2 2 2 3 3 3 4 4 5 5 5 5 4 4 3 3 3 3 3 3 3 2 2 2 2 3 3 3 3 3 4 4 5 5 6 6 7
22 19 16 14 11 8 7 6 6 6 6 6 6 6 6 6 5 4 3 1 1 2 3 3 3 3 3 4 4 4 3 3 4 4 5 5 5 5 5 5 5 5 5 5 5 5 5 4 4 4 4 4 4 3 3 3 3 3 4 5 6 7 7
22 19 15 12 9 7 6 5 4 5 6 6 6 6 6 6 6 6 5 4 3 1 2 3 3 4 5 5 5 5 5 4 4 4 4 5 5 5 5 5 5 5 5 5 6 5 5 5 4 4 4 4 4 4 4 3 3 3 4 5 7 8 9
22 19 15 12 9 7 5 4 4 4 5 6 6 6 6 6 7 7 7 7 6 4 2 1 3 4 4 5 6 6 5 5 5 4 5 5 6 6 6 6 6 5 5 5 5 5 5 4 4 4 4 4 4 4 4 4 4 5 5 7 8 9 10
22 19 16 12 9 7 4 3 3 4 5 6 6 7 7 7 7 7 8 8 7 6 4 2 1 2 3 4 5 5 6 6 6 6 6 6 7 7 7 6 6 5 5 6 6 6 5 5 5 4 4 4 4 4 4 5 6 6 7 8 9 10 11
23 19 16 13 11 9 7 5 3 3 5 5 6 7 7 8 8 8 8 8 8 7 6 4 2 1 1 2 3 3 4 4 5 5 6 6 5 5 5 5 5 5 6 6 7 7 7 6 6 5 5 5 5 6 6 6 6 6 7 8 9 10 11
25 21 18 15 12 10 9 7 4 2 3 4 5 6 8 10 11 11 10 9 8 8 6 5 4 4 3 3 2 3 3 3 4 4 4 4 4 4 3 3 3 5 6 6 7 7 7 7 7 7 6 6 6 7 7 7 7 7 8 8 9 10 10
25 22 19 16 13 11 9 6 4 1 1 2 3 5 8 9 11 12 12 12 10 9 7 5 4 4 4 5 5 4 4 4 4 4 4 3 3 3 3 4 4 5 6 7 8 8 8 8 8 8 8 7 8 8 8 8 8 8 9 9 10 10 11
Wind_Direction
204 212 216 218 220 222 225 228 227 227 228 223 220 219 219 217 212 206 202 201 200 197 196 195 195 198 200 200 202 203 200 198 194 190 189 188 186 189 191 191 191 191 196 198 198 196 195 199 199 198 205 211 214 218 218 218 216 215 217 216 216 220 225
194 204 211 214 217 220 224 226 226 227 226 222 220 220 220 218 214 209 205 202 202 199 196 196 198 200 201 200 200 202 203 203 199 195 195 194 191 191 191 190 190 191 194 197 196 196 198 200 199 197 202 207 213 218 220 221 222 222 222 221 223 228 230
188 196 205 210 213 217 221 223 224 225 224 222 220 220 221 220 216 213 208 205 204 203 201 201 202 202 202 202 200 201 204 205 203 200 200 200 196 196 197 196 196 197 200 200 197 198 200 203 203 203 203 206 212 218 219 221 225 227 227 226 229 232 232
189 193 199 206 210 214 217 220 222 222 223 223 222 220 221 221 219 216 213 210 209 208 206 206 207 208 207 205 203 202 204 206 207 205 203 203 201 201 204 205 204 201 202 204 200 197 199 203 206 207 209 209 213 217 218 220 225 229 231 232 232 233 235
189 194 195 198 204 209 213 216 219 220 222 224 224 223 222 223 222 219 216 215 215 216 214 213 214 214 212 210 208 206 206 208 208 208 207 204 202 203 207 209 207 199 196 202 203 200 203 209 212 213 213 213 215 218 218 220 223 228 232 235 237 239 243
190 196 199 198 199 206 211 213 215 218 220 223 225 224 224 226 225 221 218 217 218 220 220 219 219 219 215 212 211 209 207 207 207 209 211 209 205 206 207 208 207 201 198 201 205 209 213 219 223 223 220 218 220 221 221 221 223 227 231 235 241 246 251
194 200 204 205 204 205 209 212 214 216 218 221 224 225 225 227 227 222 219 218 219 222 221 220 220 221 218 214 213 210 207 206 206 207 211 213 212 211 209 208 208 207 207 207 208 213 220 226 230 232 231 229 228 227 226 226 226 229 235 242 248 254 258
197 203 209 211 212 213 211 211 213 215 217 219 221 224 224 227 228 224 219 218 220 222 220 219 219 218 217 215 214 213 210 209 208 208 211 215 217 216 214 212 210 212 216 216 214 215 221 227 231 233 236 237 238 235 231 228 228 233 240 247 253 257 260
198 203 208 212 217 220 220 217 214 215 218 219 221 222 223 226 229 226 221 218 219 220 219 217 216 214 213 214 214 216 216 215 212 211 212 216 218 218 219 218 215 216 221 221 220 220 222 226 230 233 236 240 244 242 238 235 235 241 248 251 254 258 262
200 204 207 209 213 219 223 223 220 216 217 221 222 223 224 226 229 229 223 219 218 219 219 217 216 213 211 213 215 218 221 222 219 216 215 218 222 222 222 224 223 221 221 224 226 226 225 227 230 234 236 238 241 242 242 242 244 249 254 254 256 259 262
188 203 210 212 211 211 214 217 220 217 217 219 221 223 224 227 230 230 226 222 221 221 221 220 220 219 217 216 218 219 222 227 228 224 221 221 225 227 228 230 232 231 228 227 229 231 232 233 234 237 239 240 240 239 238 240 244 249 253 255 258 260 263
174 190 201 209 211 208 206 210 215 217 216 216 217 219 223 226 229 230 228 224 224 224 225 225 226 227 227 226 226 224 224 226 228 229 227 225 226 227 229 231 233 235 235 234 234 235 235 236 237 239 242 244 245 244 242 241 242 245 247 251 257 261 265
170 191 199 203 205 207 206 203 204 208 211 212 213 215 218 221 223 226 228 226 226 228 228 228 229 231 233 234 235 233 230 228 227 229 230 229 228 228 229 231 232 234 236 237 237 239 239 239 239 240 241 243 244 245 246 245 245 245 244 246 252 258 264
137 190 213 211 203 203 205 198 189 191 195 197 201 206 211 214 216 219 223 225 227 230 231 232 233 234 235 236 237 238 236 233 231 230 230 231 233 233 232 232 233 234 235 236 236 238 240 243 245 246 245 243 241 240 242 243 244 245 244 244 248 255 263
103 122 163 190 191 195 199 195 183 177 175 176 181 187 198 205 208 212 217 221 225 228 230 233 235 236 236 237 239 240 239 237 235 234 233 233 234 237 238 237 237 237 237 238 238 238 239 240 244 248 249 247 244 241 240 241 242 243 242 243 248 255 264
94 86 82 102 135 162 179 182 177 174 175 177 181 185 192 199 202 206 210 215 220 222 224 227 231 233 234 236 240 242 242 241 240 239 239 239 238 238 239 241 241 241 241 240 239 239 239 239 240 244 248 250 249 246 243 243 244 244 242 243 247 255 264
95 87 83 94 105 120 145 160 163 165 167 171 180 188 194 198 201 204 205 208 211 214 215 218 221 223 227 234 240 243 245 245 244 243 243 244 243 240 240 243 246 247 245 242 240 239 239 239 239 240 244 249 251 250 248 248 248 248 247 244 244 251 259
100 96 94 100 102 104 118 135 143 148 151 157 168 176 182 193 201 201 199 202 206 207 209 212 216 219 226 235 240 243 246 247 247 248 247 247 246 244 243 245 249 250 247 244 243 243 242 240 239 238 241 245 250 252 252 253 253 252 252 250 248 251 257
108 104 104 106 102 97 103 111 117 122 125 132 141 141 142 162 178 176 175 187 200 208 211 213 217 217 222 231 238 242 244 244 244 245 244 244 245 244 244 246 247 245 242 242 245 246 246 245 244 243 244 247 252 255 256 256 255 253 252 250 250 252 257
116 114 112 110 105 101 101 103 106 109 111 113 117 120 120 129 140 142 144 157 177 191 197 199 201 200 206 215 221 222 223 228 234 236 235 237 237 237 238 239 240 238 237 240 244 246 246 246 246 246 247 250 253 256 258 258 255 253 252 249 248 250 254
121 121 119 112 107 103 101 101 103 104 105 106 105 106 107 109 115 121 126 133 143 151 157 165 174 177 183 190 191 187 185 189 201 209 210 217 224 227 228 228 230 234 235 238 241 244 246 245 245 244 245 246 248 249 252 255 257 258 258 256 254 254 256
129 127 121 114 110 107 103 101 100 99 101 102 101 99 98 98 102 108 113 117 121 126 130 136 142 143 143 145 148 159 168 170 173 174 176 186 197 205 213 218 225 232 237 241 243 244 245 244 243 244 244 244 245 244 245 252 256 258 260 261 262 263 264
134 130 123 118 116 113 109 106 102 101 101 100 99 96 96 97 97 98 101 103 103 106 111 112 112 110 107 107 113 123 134 141 152 165 173 187 200 207 218 230 226 224 235 242 239 236 238 243 246 247 247 248 250 248 249 254 257 258 259 262 263 264 267
135 131 127 126 123 118 116 113 110 109 106 102 99 96 95 98 97 97 103 103 100 102 104 102 103 106 106 104 104 105 101 95 92 88 79 72 73 136 193 219 232 228 245 248 239 232 233 240 248 251 251 254 256 256 256 258 260 260 260 261 262 264 268
137 135 133 131 128 125 122 119 117 114 109 104 103 102 103 105 104 104 108 107 104 110 110 104 103 107 108 106 102 97 89 80 75 72 73 73 72 77 89 95 93 86 48 246 240 235 226 224 236 246 251 259 267 272 271 267 265 265 266 266 266 266 269
143 142 138 135 132 127 122 118 115 112 108 103 103 106 108 110 111 112 112 110 109 116 118 114 113 113 111 108 106 102 97 91 85 80 81 84 83 82 83 82 82 85 96 151 196 197 163 148 201 242 260 272 280 285 282 274 270 269 270 271 270 269 270
151 148 144 140 136 129 123 119 112 109 107 101 99 103 102 101 107 112 116 121 129 136 135 129 127 126 120 113 110 106 106 107 106 108 111 111 111 109 105 100 98 101 108 88 43 47 62 72 62 6 338 316 307 299 285 276 275 272 271 273 275 276 278
158 155 151 146 141 136 128 120 113 107 105 100 98 99 94 93 99 104 108 118 132 143 147 143 144 148 147 143 139 126 117 115 118 129 138 141 144 150 149 144 143 156 183 233 347 357 12 22 17 5 349 334 331 319 304 299 300 298 299 300 297 292 287
164 160 157 153 149 143 130 119 115 108 102 101 99 97 95 91 90 92 98 108 117 133 146 151 163 173 177 181 184 177 165 149 138 142 152 157 165 175 175 168 167 171 173 169 153 23 23 25 15 350 315 300 296 289 288 294 298 304 315 320 313 304 296
170 166 163 161 155 147 135 121 112 100 94 94 91 89 91 89 86 91 100 108 123 153 170 167 179 206 217 218 217 203 194 188 180 173 175 177 182 190 193 193 195 199 203 207 216 247 21 39 9 314 284 284 289 286 284 289 291 295 302 301 295 292 287
175 171 167 164 157 147 135 117 99 86 81 79 73 64 56 50 51 55 66 89 214 228 221 209 200 208 223 229 234 233 224 216 215 211 208 207 209 215 226 239 251 262 271 282 288 294 302 307 307 306 297 297 309 320 322 319 309 301 298 292 290 288 286
177 176 172 168 160 148 132 111 88 74 69 64 58 47 35 26 19 14 16 4 271 246 234 221 204 196 203 211 218 226 229 234 239 240 238 234 232 234 243 258 274 286 297 305 307 308 307 304 303 303 299 295 299 312 330 341 335 315 297 288 288 290 293
180 180 178 173 166 154 138 114 90 77 67 55 47 37 27 22 16 10 9 6 356 320 254 230 212 200 196 196 200 205 209 217 228 239 248 252 251 249 251 259 272 286 300 308 312 314 312 307 302 297 294 293 292 295 306 321 328 318 301 290 287 287 289
185 183 182 180 175 165 147 121 100 82 64 52 45 36 27 21 16 15 15 13 11 10 9 228 213 211 203 196 196 198 202 210 220 226 235 244 247 249 252 257 264 273 284 292 300 308 310 311 309 302 297 300 303 305 306 306 306 304 299 296 294 293 295
190 187 186 185 185 182 172 151 119 78 56 46 38 34 33 28 21 20 20 18 16 14 16 19 204 202 197 198 201 204 208 217 226 232 236 240 244 248 251 253 254 256 263 271 277 283 292 302 307 309 312 315 320 326 325 318 312 307 304 304 305 307 309
194 192 191 193 196 197 193 182 150 82 51 38 33 37 40 36 32 29 24 21 22 20 16 11 2 346 214 210 219 224 228 230 233 237 238 237 241 246 251 256 254 244 243 253 263 271 280 287 290 294 303 313 321 326 329 327 322 318 315 315 315 315 317
196 197 198 202 206 207 201 188 164 98 39 28 41 53 49 44 43 39 32 27 25 23 23 17 2 348 341 333 320 300 287 275 261 255 248 241 235 228 220 222 233 236 237 242 253 266 274 277 280 283 290 301 311 315 315 316 318 320 323 324 323 322 322
201 203 206 209 214 213 206 193 174 136 12 18 57 60 51 44 41 36 32 30 26 23 25 23 6 350 344 339 333 327 314 297 285 277 270 266 264 242 213 203 209 225 236 240 246 256 264 268 273 278 285 293 297 297 298 300 306 311 317 321 323 325 326